[Werte auf volle kW gerundet];;
01.01.2022;00:15:00;4207
01.01.2022;00:30:00;4073
01.01.2022;00:45:00;4039
01.01.2022;01:00:00;4020
01.01.2022;01:15:00;3953
01.01.2022;01:30:00;3889
01.01.2022;01:45:00;3823
01.01.2022;02:00:00;3746
01.01.2022;02:15:00;3719
01.01.2022;02:30:00;3783
01.01.2022;02:45:00;3726
01.01.2022;03:00:00;3592
01.01.2022;03:15:00;3603
01.01.2022;03:30:00;3543
01.01.2022;03:45:00;3438
01.01.2022;04:00:00;3463
01.01.2022;04:15:00;3399
01.01.2022;04:30:00;3372
01.01.2022;04:45:00;3404
01.01.2022;05:00:00;3383
01.01.2022;05:15:00;3336
01.01.2022;05:30:00;3259
01.01.2022;05:45:00;3356
01.01.2022;06:00:00;3318
01.01.2022;06:15:00;3306
01.01.2022;06:30:00;3310
01.01.2022;06:45:00;3367
01.01.2022;07:00:00;3437
01.01.2022;07:15:00;3520
01.01.2022;07:30:00;3552
01.01.2022;07:45:00;3669
01.01.2022;08:00:00;3835
01.01.2022;08:15:00;3751
01.01.2022;08:30:00;3822
01.01.2022;08:45:00;3978
01.01.2022;09:00:00;4326
01.01.2022;09:15:00;4504
01.01.2022;09:30:00;4672
01.01.2022;09:45:00;4834
01.01.2022;10:00:00;4941
01.01.2022;10:15:00;4851
01.01.2022;10:30:00;5137
01.01.2022;10:45:00;5372
01.01.2022;11:00:00;5596
01.01.2022;11:15:00;5949
01.01.2022;11:30:00;6181
01.01.2022;11:45:00;6299
01.01.2022;12:00:00;6286
01.01.2022;12:15:00;6177
01.01.2022;12:30:00;5963
01.01.2022;12:45:00;5912
01.01.2022;13:00:00;5760
01.01.2022;13:15:00;5435
01.01.2022;13:30:00;5304
01.01.2022;13:45:00;5327
01.01.2022;14:00:00;5151
01.01.2022;14:15:00;5143
01.01.2022;14:30:00;5165
01.01.2022;14:45:00;5053
01.01.2022;15:00:00;4997
01.01.2022;15:15:00;5105
01.01.2022;15:30:00;5098
01.01.2022;15:45:00;5065
01.01.2022;16:00:00;5083
01.01.2022;16:15:00;5176
01.01.2022;16:30:00;5312
01.01.2022;16:45:00;5636
01.01.2022;17:00:00;5874
01.01.2022;17:15:00;6065
01.01.2022;17:30:00;6343
01.01.2022;17:45:00;6551
01.01.2022;18:00:00;6781
01.01.2022;18:15:00;6680
01.01.2022;18:30:00;6802
01.01.2022;18:45:00;6705
01.01.2022;19:00:00;6586
01.01.2022;19:15:00;6484
01.01.2022;19:30:00;6334
01.01.2022;19:45:00;6219
01.01.2022;20:00:00;6127
01.01.2022;20:15:00;6107
01.01.2022;20:30:00;5834
01.01.2022;20:45:00;5733
01.01.2022;21:00:00;5670
01.01.2022;21:15:00;5592
01.01.2022;21:30:00;5359
01.01.2022;21:45:00;5303
01.01.2022;22:00:00;5221
01.01.2022;22:15:00;5112
01.01.2022;22:30:00;5003
01.01.2022;22:45:00;4783
01.01.2022;23:00:00;4671
01.01.2022;23:15:00;4513
01.01.2022;23:30:00;4350
01.01.2022;23:45:00;4287
02.01.2022;00:00:00;4079
02.01.2022;00:15:00;4015
02.01.2022;00:30:00;3825
02.01.2022;00:45:00;3802
02.01.2022;01:00:00;3744
02.01.2022;01:15:00;3670
02.01.2022;01:30:00;3636
02.01.2022;01:45:00;3570
02.01.2022;02:00:00;3521
02.01.2022;02:15:00;3564
02.01.2022;02:30:00;3540
02.01.2022;02:45:00;3554
02.01.2022;03:00:00;3526
02.01.2022;03:15:00;3572
02.01.2022;03:30:00;3570
02.01.2022;03:45:00;3564
02.01.2022;04:00:00;3585
02.01.2022;04:15:00;3513
02.01.2022;04:30:00;3490
02.01.2022;04:45:00;3439
02.01.2022;05:00:00;3412
02.01.2022;05:15:00;3480
02.01.2022;05:30:00;3377
02.01.2022;05:45:00;3465
02.01.2022;06:00:00;3478
02.01.2022;06:15:00;3520
02.01.2022;06:30:00;3522
02.01.2022;06:45:00;3604
02.01.2022;07:00:00;3590
02.01.2022;07:15:00;3778
02.01.2022;07:30:00;3746
02.01.2022;07:45:00;4024
02.01.2022;08:00:00;4167
02.01.2022;08:15:00;4348
02.01.2022;08:30:00;4497
02.01.2022;08:45:00;4793
02.01.2022;09:00:00;4973
02.01.2022;09:15:00;5138
02.01.2022;09:30:00;5355
02.01.2022;09:45:00;5509
02.01.2022;10:00:00;5369
02.01.2022;10:15:00;5553
02.01.2022;10:30:00;5765
02.01.2022;10:45:00;6116
02.01.2022;11:00:00;6404
02.01.2022;11:15:00;6746
02.01.2022;11:30:00;6931
02.01.2022;11:45:00;6963
02.01.2022;12:00:00;7040
02.01.2022;12:15:00;6903
02.01.2022;12:30:00;6591
02.01.2022;12:45:00;6310
02.01.2022;13:00:00;6099
02.01.2022;13:15:00;5738
02.01.2022;13:30:00;5734
02.01.2022;13:45:00;5583
02.01.2022;14:00:00;5577
02.01.2022;14:15:00;5422
02.01.2022;14:30:00;5418
02.01.2022;14:45:00;5506
02.01.2022;15:00:00;5276
02.01.2022;15:15:00;5097
02.01.2022;15:30:00;5139
02.01.2022;15:45:00;5194
02.01.2022;16:00:00;5154
02.01.2022;16:15:00;5359
02.01.2022;16:30:00;5564
02.01.2022;16:45:00;5837
02.01.2022;17:00:00;6181
02.01.2022;17:15:00;6591
02.01.2022;17:30:00;6643
02.01.2022;17:45:00;6751
02.01.2022;18:00:00;6797
02.01.2022;18:15:00;6970
02.01.2022;18:30:00;6919
02.01.2022;18:45:00;7093
02.01.2022;19:00:00;6977
02.01.2022;19:15:00;6636
02.01.2022;19:30:00;6635
02.01.2022;19:45:00;6518
02.01.2022;20:00:00;6359
02.01.2022;20:15:00;6094
02.01.2022;20:30:00;5938
02.01.2022;20:45:00;5800
02.01.2022;21:00:00;5618
02.01.2022;21:15:00;5400
02.01.2022;21:30:00;5301
02.01.2022;21:45:00;5331
02.01.2022;22:00:00;5133
02.01.2022;22:15:00;4875
02.01.2022;22:30:00;4746
02.01.2022;22:45:00;4554
02.01.2022;23:00:00;4328
02.01.2022;23:15:00;4120
02.01.2022;23:30:00;4022
02.01.2022;23:45:00;3876
03.01.2022;00:00:00;3742
03.01.2022;00:15:00;3616
03.01.2022;00:30:00;3546
03.01.2022;00:45:00;3452
03.01.2022;01:00:00;3371
03.01.2022;01:15:00;3607
03.01.2022;01:30:00;3576
03.01.2022;01:45:00;3490
03.01.2022;02:00:00;3455
03.01.2022;02:15:00;3418
03.01.2022;02:30:00;3356
03.01.2022;02:45:00;3352
03.01.2022;03:00:00;3437
03.01.2022;03:15:00;3464
03.01.2022;03:30:00;3493
03.01.2022;03:45:00;3518
03.01.2022;04:00:00;3512
03.01.2022;04:15:00;3635
03.01.2022;04:30:00;3726
03.01.2022;04:45:00;3804
03.01.2022;05:00:00;3799
03.01.2022;05:15:00;3916
03.01.2022;05:30:00;4069
03.01.2022;05:45:00;4284
03.01.2022;06:00:00;4294
03.01.2022;06:15:00;4872
03.01.2022;06:30:00;4944
03.01.2022;06:45:00;5174
03.01.2022;07:00:00;5354
03.01.2022;07:15:00;5672
03.01.2022;07:30:00;5894
03.01.2022;07:45:00;6129
03.01.2022;08:00:00;6213
03.01.2022;08:15:00;6149
03.01.2022;08:30:00;6285
03.01.2022;08:45:00;6288
03.01.2022;09:00:00;6500
03.01.2022;09:15:00;6508
03.01.2022;09:30:00;6517
03.01.2022;09:45:00;6374
03.01.2022;10:00:00;6540
03.01.2022;10:15:00;6660
03.01.2022;10:30:00;6495
03.01.2022;10:45:00;6583
03.01.2022;11:00:00;6614
03.01.2022;11:15:00;6618
03.01.2022;11:30:00;6636
03.01.2022;11:45:00;6519
03.01.2022;12:00:00;6714
03.01.2022;12:15:00;6948
03.01.2022;12:30:00;6599
03.01.2022;12:45:00;6640
03.01.2022;13:00:00;6385
03.01.2022;13:15:00;6505
03.01.2022;13:30:00;6558
03.01.2022;13:45:00;6649
03.01.2022;14:00:00;6489
03.01.2022;14:15:00;6434
03.01.2022;14:30:00;6505
03.01.2022;14:45:00;6447
03.01.2022;15:00:00;6292
03.01.2022;15:15:00;6360
03.01.2022;15:30:00;6307
03.01.2022;15:45:00;6203
03.01.2022;16:00:00;6189
03.01.2022;16:15:00;6454
03.01.2022;16:30:00;6666
03.01.2022;16:45:00;6907
03.01.2022;17:00:00;7025
03.01.2022;17:15:00;7127
03.01.2022;17:30:00;7231
03.01.2022;17:45:00;7407
03.01.2022;18:00:00;7504
03.01.2022;18:15:00;7456
03.01.2022;18:30:00;7460
03.01.2022;18:45:00;7358
03.01.2022;19:00:00;7368
03.01.2022;19:15:00;7237
03.01.2022;19:30:00;7001
03.01.2022;19:45:00;6911
03.01.2022;20:00:00;6688
03.01.2022;20:15:00;6390
03.01.2022;20:30:00;6084
03.01.2022;20:45:00;6024
03.01.2022;21:00:00;5932
03.01.2022;21:15:00;5701
03.01.2022;21:30:00;5557
03.01.2022;21:45:00;5326
03.01.2022;22:00:00;5272
03.01.2022;22:15:00;5100
03.01.2022;22:30:00;4904
03.01.2022;22:45:00;4724
03.01.2022;23:00:00;4572
03.01.2022;23:15:00;4306
03.01.2022;23:30:00;4097
03.01.2022;23:45:00;3996
04.01.2022;00:00:00;3857
04.01.2022;00:15:00;3797
04.01.2022;00:30:00;3706
04.01.2022;00:45:00;3667
04.01.2022;01:00:00;3627
04.01.2022;01:15:00;3557
04.01.2022;01:30:00;3446
04.01.2022;01:45:00;3373
04.01.2022;02:00:00;3375
04.01.2022;02:15:00;3451
04.01.2022;02:30:00;3446
04.01.2022;02:45:00;3537
04.01.2022;03:00:00;3554
04.01.2022;03:15:00;3642
04.01.2022;03:30:00;3596
04.01.2022;03:45:00;3639
04.01.2022;04:00:00;3559
04.01.2022;04:15:00;3600
04.01.2022;04:30:00;3655
04.01.2022;04:45:00;3733
04.01.2022;05:00:00;3840
04.01.2022;05:15:00;3968
04.01.2022;05:30:00;4101
04.01.2022;05:45:00;4254
04.01.2022;06:00:00;4423
04.01.2022;06:15:00;4733
04.01.2022;06:30:00;5005
04.01.2022;06:45:00;5269
04.01.2022;07:00:00;5403
04.01.2022;07:15:00;5698
04.01.2022;07:30:00;5897
04.01.2022;07:45:00;6128
04.01.2022;08:00:00;6273
04.01.2022;08:15:00;6347
04.01.2022;08:30:00;6450
04.01.2022;08:45:00;6466
04.01.2022;09:00:00;6583
04.01.2022;09:15:00;6608
04.01.2022;09:30:00;6732
04.01.2022;09:45:00;6893
04.01.2022;10:00:00;6879
04.01.2022;10:15:00;6802
04.01.2022;10:30:00;6870
04.01.2022;10:45:00;6916
04.01.2022;11:00:00;7058
04.01.2022;11:15:00;7051
04.01.2022;11:30:00;7279
04.01.2022;11:45:00;7271
04.01.2022;12:00:00;7330
04.01.2022;12:15:00;7416
04.01.2022;12:30:00;7276
04.01.2022;12:45:00;7232
04.01.2022;13:00:00;7131
04.01.2022;13:15:00;7096
04.01.2022;13:30:00;6979
04.01.2022;13:45:00;6910
04.01.2022;14:00:00;6777
04.01.2022;14:15:00;6680
04.01.2022;14:30:00;6674
04.01.2022;14:45:00;6643
04.01.2022;15:00:00;6626
04.01.2022;15:15:00;6704
04.01.2022;15:30:00;6640
04.01.2022;15:45:00;6655
04.01.2022;16:00:00;6529
04.01.2022;16:15:00;6706
04.01.2022;16:30:00;6891
04.01.2022;16:45:00;7059
04.01.2022;17:00:00;7305
04.01.2022;17:15:00;7366
04.01.2022;17:30:00;7562
04.01.2022;17:45:00;7616
04.01.2022;18:00:00;7674
04.01.2022;18:15:00;7742
04.01.2022;18:30:00;7659
04.01.2022;18:45:00;7684
04.01.2022;19:00:00;7502
04.01.2022;19:15:00;7393
04.01.2022;19:30:00;7274
04.01.2022;19:45:00;7144
04.01.2022;20:00:00;7045
04.01.2022;20:15:00;6625
04.01.2022;20:30:00;6342
04.01.2022;20:45:00;6159
04.01.2022;21:00:00;6047
04.01.2022;21:15:00;5881
04.01.2022;21:30:00;5697
04.01.2022;21:45:00;5614
04.01.2022;22:00:00;5501
04.01.2022;22:15:00;5252
04.01.2022;22:30:00;5116
04.01.2022;22:45:00;4851
04.01.2022;23:00:00;4674
04.01.2022;23:15:00;4457
04.01.2022;23:30:00;4225
04.01.2022;23:45:00;4169
05.01.2022;00:00:00;4010
05.01.2022;00:15:00;3878
05.01.2022;00:30:00;3830
05.01.2022;00:45:00;3792
05.01.2022;01:00:00;3760
05.01.2022;01:15:00;3743
05.01.2022;01:30:00;3661
05.01.2022;01:45:00;3686
05.01.2022;02:00:00;3720
05.01.2022;02:15:00;3769
05.01.2022;02:30:00;3758
05.01.2022;02:45:00;3803
05.01.2022;03:00:00;3826
05.01.2022;03:15:00;3921
05.01.2022;03:30:00;3935
05.01.2022;03:45:00;3887
05.01.2022;04:00:00;3826
05.01.2022;04:15:00;3922
05.01.2022;04:30:00;3983
05.01.2022;04:45:00;4102
05.01.2022;05:00:00;4181
05.01.2022;05:15:00;4330
05.01.2022;05:30:00;4513
05.01.2022;05:45:00;4682
05.01.2022;06:00:00;4818
05.01.2022;06:15:00;5146
05.01.2022;06:30:00;5416
05.01.2022;06:45:00;5751
05.01.2022;07:00:00;6108
05.01.2022;07:15:00;6283
05.01.2022;07:30:00;6446
05.01.2022;07:45:00;6627
05.01.2022;08:00:00;6839
05.01.2022;08:15:00;6901
05.01.2022;08:30:00;6846
05.01.2022;08:45:00;6846
05.01.2022;09:00:00;6863
05.01.2022;09:15:00;6994
05.01.2022;09:30:00;6923
05.01.2022;09:45:00;6952
05.01.2022;10:00:00;7022
05.01.2022;10:15:00;6777
05.01.2022;10:30:00;6552
05.01.2022;10:45:00;6458
05.01.2022;11:00:00;6433
05.01.2022;11:15:00;6590
05.01.2022;11:30:00;6573
05.01.2022;11:45:00;6737
05.01.2022;12:00:00;7157
05.01.2022;12:15:00;6945
05.01.2022;12:30:00;6552
05.01.2022;12:45:00;6379
05.01.2022;13:00:00;6211
05.01.2022;13:15:00;6333
05.01.2022;13:30:00;6190
05.01.2022;13:45:00;6278
05.01.2022;14:00:00;6557
05.01.2022;14:15:00;6717
05.01.2022;14:30:00;6860
05.01.2022;14:45:00;6980
05.01.2022;15:00:00;6927
05.01.2022;15:15:00;6888
05.01.2022;15:30:00;6984
05.01.2022;15:45:00;7054
05.01.2022;16:00:00;6937
05.01.2022;16:15:00;7036
05.01.2022;16:30:00;7135
05.01.2022;16:45:00;7281
05.01.2022;17:00:00;7395
05.01.2022;17:15:00;7536
05.01.2022;17:30:00;7681
05.01.2022;17:45:00;7863
05.01.2022;18:00:00;7975
05.01.2022;18:15:00;7925
05.01.2022;18:30:00;7887
05.01.2022;18:45:00;7920
05.01.2022;19:00:00;7797
05.01.2022;19:15:00;7656
05.01.2022;19:30:00;7432
05.01.2022;19:45:00;7190
05.01.2022;20:00:00;7026
05.01.2022;20:15:00;6697
05.01.2022;20:30:00;6491
05.01.2022;20:45:00;6245
05.01.2022;21:00:00;6269
05.01.2022;21:15:00;6109
05.01.2022;21:30:00;5923
05.01.2022;21:45:00;5808
05.01.2022;22:00:00;5593
05.01.2022;22:15:00;5350
05.01.2022;22:30:00;5118
05.01.2022;22:45:00;5050
05.01.2022;23:00:00;4821
05.01.2022;23:15:00;4621
05.01.2022;23:30:00;4488
05.01.2022;23:45:00;4354
06.01.2022;00:00:00;4235
06.01.2022;00:15:00;4144
06.01.2022;00:30:00;4041
06.01.2022;00:45:00;4029
06.01.2022;01:00:00;4007
06.01.2022;01:15:00;4050
06.01.2022;01:30:00;4027
06.01.2022;01:45:00;4070
06.01.2022;02:00:00;4053
06.01.2022;02:15:00;4042
06.01.2022;02:30:00;4034
06.01.2022;02:45:00;4086
06.01.2022;03:00:00;4096
06.01.2022;03:15:00;4040
06.01.2022;03:30:00;4102
06.01.2022;03:45:00;4046
06.01.2022;04:00:00;4028
06.01.2022;04:15:00;4179
06.01.2022;04:30:00;4159
06.01.2022;04:45:00;4182
06.01.2022;05:00:00;4297
06.01.2022;05:15:00;4485
06.01.2022;05:30:00;4602
06.01.2022;05:45:00;4751
06.01.2022;06:00:00;4937
06.01.2022;06:15:00;5254
06.01.2022;06:30:00;5650
06.01.2022;06:45:00;5929
06.01.2022;07:00:00;5995
06.01.2022;07:15:00;6360
06.01.2022;07:30:00;6500
06.01.2022;07:45:00;6682
06.01.2022;08:00:00;6868
06.01.2022;08:15:00;6968
06.01.2022;08:30:00;6842
06.01.2022;08:45:00;6891
06.01.2022;09:00:00;7020
06.01.2022;09:15:00;6925
06.01.2022;09:30:00;7073
06.01.2022;09:45:00;6898
06.01.2022;10:00:00;6814
06.01.2022;10:15:00;6728
06.01.2022;10:30:00;6662
06.01.2022;10:45:00;6572
06.01.2022;11:00:00;6707
06.01.2022;11:15:00;6628
06.01.2022;11:30:00;6653
06.01.2022;11:45:00;6559
06.01.2022;12:00:00;6456
06.01.2022;12:15:00;6441
06.01.2022;12:30:00;6318
06.01.2022;12:45:00;6112
06.01.2022;13:00:00;6177
06.01.2022;13:15:00;6118
06.01.2022;13:30:00;6098
06.01.2022;13:45:00;6045
06.01.2022;14:00:00;6061
06.01.2022;14:15:00;6148
06.01.2022;14:30:00;6245
06.01.2022;14:45:00;6364
06.01.2022;15:00:00;6429
06.01.2022;15:15:00;6320
06.01.2022;15:30:00;6466
06.01.2022;15:45:00;6431
06.01.2022;16:00:00;6554
06.01.2022;16:15:00;6709
06.01.2022;16:30:00;6797
06.01.2022;16:45:00;7137
06.01.2022;17:00:00;7322
06.01.2022;17:15:00;7604
06.01.2022;17:30:00;7652
06.01.2022;17:45:00;7854
06.01.2022;18:00:00;7940
06.01.2022;18:15:00;7936
06.01.2022;18:30:00;8015
06.01.2022;18:45:00;7938
06.01.2022;19:00:00;7718
06.01.2022;19:15:00;7467
06.01.2022;19:30:00;7408
06.01.2022;19:45:00;7257
06.01.2022;20:00:00;7127
06.01.2022;20:15:00;6763
06.01.2022;20:30:00;6599
06.01.2022;20:45:00;6412
06.01.2022;21:00:00;6236
06.01.2022;21:15:00;6098
06.01.2022;21:30:00;5968
06.01.2022;21:45:00;5861
06.01.2022;22:00:00;5788
06.01.2022;22:15:00;5568
06.01.2022;22:30:00;5351
06.01.2022;22:45:00;5273
06.01.2022;23:00:00;5065
06.01.2022;23:15:00;4892
06.01.2022;23:30:00;4771
06.01.2022;23:45:00;4718
07.01.2022;00:00:00;4638
07.01.2022;00:15:00;4501
07.01.2022;00:30:00;4423
07.01.2022;00:45:00;4391
07.01.2022;01:00:00;4335
07.01.2022;01:15:00;4234
07.01.2022;01:30:00;4304
07.01.2022;01:45:00;4236
07.01.2022;02:00:00;4236
07.01.2022;02:15:00;4349
07.01.2022;02:30:00;4283
07.01.2022;02:45:00;4274
07.01.2022;03:00:00;4229
07.01.2022;03:15:00;4323
07.01.2022;03:30:00;4324
07.01.2022;03:45:00;4296
07.01.2022;04:00:00;4311
07.01.2022;04:15:00;4352
07.01.2022;04:30:00;4335
07.01.2022;04:45:00;4405
07.01.2022;05:00:00;4428
07.01.2022;05:15:00;4592
07.01.2022;05:30:00;4706
07.01.2022;05:45:00;4927
07.01.2022;06:00:00;5093
07.01.2022;06:15:00;5325
07.01.2022;06:30:00;5491
07.01.2022;06:45:00;5897
07.01.2022;07:00:00;6030
07.01.2022;07:15:00;6376
07.01.2022;07:30:00;6622
07.01.2022;07:45:00;6804
07.01.2022;08:00:00;7119
07.01.2022;08:15:00;7032
07.01.2022;08:30:00;7014
07.01.2022;08:45:00;7081
07.01.2022;09:00:00;7107
07.01.2022;09:15:00;7152
07.01.2022;09:30:00;7162
07.01.2022;09:45:00;7351
07.01.2022;10:00:00;7314
07.01.2022;10:15:00;7261
07.01.2022;10:30:00;7230
07.01.2022;10:45:00;7141
07.01.2022;11:00:00;7050
07.01.2022;11:15:00;7104
07.01.2022;11:30:00;7303
07.01.2022;11:45:00;7356
07.01.2022;12:00:00;7481
07.01.2022;12:15:00;7558
07.01.2022;12:30:00;7488
07.01.2022;12:45:00;7338
07.01.2022;13:00:00;7308
07.01.2022;13:15:00;7135
07.01.2022;13:30:00;6968
07.01.2022;13:45:00;7014
07.01.2022;14:00:00;7004
07.01.2022;14:15:00;6926
07.01.2022;14:30:00;6895
07.01.2022;14:45:00;6899
07.01.2022;15:00:00;6937
07.01.2022;15:15:00;6950
07.01.2022;15:30:00;6967
07.01.2022;15:45:00;6859
07.01.2022;16:00:00;6907
07.01.2022;16:15:00;6995
07.01.2022;16:30:00;7051
07.01.2022;16:45:00;7252
07.01.2022;17:00:00;7432
07.01.2022;17:15:00;7621
07.01.2022;17:30:00;7720
07.01.2022;17:45:00;7797
07.01.2022;18:00:00;7901
07.01.2022;18:15:00;7898
07.01.2022;18:30:00;7809
07.01.2022;18:45:00;7613
07.01.2022;19:00:00;7621
07.01.2022;19:15:00;7361
07.01.2022;19:30:00;7266
07.01.2022;19:45:00;7118
07.01.2022;20:00:00;6972
07.01.2022;20:15:00;6714
07.01.2022;20:30:00;6576
07.01.2022;20:45:00;6419
07.01.2022;21:00:00;6218
07.01.2022;21:15:00;6087
07.01.2022;21:30:00;6045
07.01.2022;21:45:00;5898
07.01.2022;22:00:00;5899
07.01.2022;22:15:00;5614
07.01.2022;22:30:00;5506
07.01.2022;22:45:00;5272
07.01.2022;23:00:00;5167
07.01.2022;23:15:00;4875
07.01.2022;23:30:00;4861
07.01.2022;23:45:00;4746
08.01.2022;00:00:00;4609
08.01.2022;00:15:00;4524
08.01.2022;00:30:00;4332
08.01.2022;00:45:00;4347
08.01.2022;01:00:00;4259
08.01.2022;01:15:00;4136
08.01.2022;01:30:00;4146
08.01.2022;01:45:00;4155
08.01.2022;02:00:00;4169
08.01.2022;02:15:00;4193
08.01.2022;02:30:00;4113
08.01.2022;02:45:00;4199
08.01.2022;03:00:00;4136
08.01.2022;03:15:00;4193
08.01.2022;03:30:00;4183
08.01.2022;03:45:00;4111
08.01.2022;04:00:00;4031
08.01.2022;04:15:00;4094
08.01.2022;04:30:00;4127
08.01.2022;04:45:00;4098
08.01.2022;05:00:00;4081
08.01.2022;05:15:00;4091
08.01.2022;05:30:00;4122
08.01.2022;05:45:00;4081
08.01.2022;06:00:00;4198
08.01.2022;06:15:00;4137
08.01.2022;06:30:00;4266
08.01.2022;06:45:00;4492
08.01.2022;07:00:00;4558
08.01.2022;07:15:00;4715
08.01.2022;07:30:00;4945
08.01.2022;07:45:00;5100
08.01.2022;08:00:00;5392
08.01.2022;08:15:00;5648
08.01.2022;08:30:00;5817
08.01.2022;08:45:00;6053
08.01.2022;09:00:00;6276
08.01.2022;09:15:00;6449
08.01.2022;09:30:00;6648
08.01.2022;09:45:00;6656
08.01.2022;10:00:00;6735
08.01.2022;10:15:00;6818
08.01.2022;10:30:00;6791
08.01.2022;10:45:00;6998
08.01.2022;11:00:00;7008
08.01.2022;11:15:00;7213
08.01.2022;11:30:00;7473
08.01.2022;11:45:00;7444
08.01.2022;12:00:00;7338
08.01.2022;12:15:00;6835
08.01.2022;12:30:00;6659
08.01.2022;12:45:00;6851
08.01.2022;13:00:00;6681
08.01.2022;13:15:00;6438
08.01.2022;13:30:00;6493
08.01.2022;13:45:00;6042
08.01.2022;14:00:00;5939
08.01.2022;14:15:00;5867
08.01.2022;14:30:00;5863
08.01.2022;14:45:00;5950
08.01.2022;15:00:00;5941
08.01.2022;15:15:00;5983
08.01.2022;15:30:00;6094
08.01.2022;15:45:00;6228
08.01.2022;16:00:00;6209
08.01.2022;16:15:00;6271
08.01.2022;16:30:00;6299
08.01.2022;16:45:00;6625
08.01.2022;17:00:00;7048
08.01.2022;17:15:00;7441
08.01.2022;17:30:00;7422
08.01.2022;17:45:00;7573
08.01.2022;18:00:00;7800
08.01.2022;18:15:00;7816
08.01.2022;18:30:00;7660
08.01.2022;18:45:00;7651
08.01.2022;19:00:00;7463
08.01.2022;19:15:00;7434
08.01.2022;19:30:00;7203
08.01.2022;19:45:00;7003
08.01.2022;20:00:00;6924
08.01.2022;20:15:00;6588
08.01.2022;20:30:00;6441
08.01.2022;20:45:00;6251
08.01.2022;21:00:00;6131
08.01.2022;21:15:00;5986
08.01.2022;21:30:00;5805
08.01.2022;21:45:00;5753
08.01.2022;22:00:00;5592
08.01.2022;22:15:00;5604
08.01.2022;22:30:00;5450
08.01.2022;22:45:00;5379
08.01.2022;23:00:00;5235
08.01.2022;23:15:00;5132
08.01.2022;23:30:00;5018
08.01.2022;23:45:00;4856
09.01.2022;00:00:00;4702
09.01.2022;00:15:00;4585
09.01.2022;00:30:00;4502
09.01.2022;00:45:00;4448
09.01.2022;01:00:00;4446
09.01.2022;01:15:00;4328
09.01.2022;01:30:00;4324
09.01.2022;01:45:00;4290
09.01.2022;02:00:00;4154
09.01.2022;02:15:00;4127
09.01.2022;02:30:00;4083
09.01.2022;02:45:00;4056
09.01.2022;03:00:00;3938
09.01.2022;03:15:00;3958
09.01.2022;03:30:00;3916
09.01.2022;03:45:00;3876
09.01.2022;04:00:00;3869
09.01.2022;04:15:00;3936
09.01.2022;04:30:00;3893
09.01.2022;04:45:00;3874
09.01.2022;05:00:00;3719
09.01.2022;05:15:00;3779
09.01.2022;05:30:00;3832
09.01.2022;05:45:00;3835
09.01.2022;06:00:00;3788
09.01.2022;06:15:00;3815
09.01.2022;06:30:00;3801
09.01.2022;06:45:00;3870
09.01.2022;07:00:00;3913
09.01.2022;07:15:00;4061
09.01.2022;07:30:00;4166
09.01.2022;07:45:00;4344
09.01.2022;08:00:00;4676
09.01.2022;08:15:00;4868
09.01.2022;08:30:00;5113
09.01.2022;08:45:00;5419
09.01.2022;09:00:00;5655
09.01.2022;09:15:00;5801
09.01.2022;09:30:00;6141
09.01.2022;09:45:00;6252
09.01.2022;10:00:00;6461
09.01.2022;10:15:00;6496
09.01.2022;10:30:00;6852
09.01.2022;10:45:00;6944
09.01.2022;11:00:00;7378
09.01.2022;11:15:00;7663
09.01.2022;11:30:00;8076
09.01.2022;11:45:00;8232
09.01.2022;12:00:00;8183
09.01.2022;12:15:00;7908
09.01.2022;12:30:00;7616
09.01.2022;12:45:00;7328
09.01.2022;13:00:00;6992
09.01.2022;13:15:00;6778
09.01.2022;13:30:00;6679
09.01.2022;13:45:00;6614
09.01.2022;14:00:00;6408
09.01.2022;14:15:00;6276
09.01.2022;14:30:00;6214
09.01.2022;14:45:00;6212
09.01.2022;15:00:00;6203
09.01.2022;15:15:00;6146
09.01.2022;15:30:00;6109
09.01.2022;15:45:00;6101
09.01.2022;16:00:00;6090
09.01.2022;16:15:00;6134
09.01.2022;16:30:00;6174
09.01.2022;16:45:00;6364
09.01.2022;17:00:00;6652
09.01.2022;17:15:00;6650
09.01.2022;17:30:00;6755
09.01.2022;17:45:00;6996
09.01.2022;18:00:00;7246
09.01.2022;18:15:00;7347
09.01.2022;18:30:00;7351
09.01.2022;18:45:00;7334
09.01.2022;19:00:00;7204
09.01.2022;19:15:00;7024
09.01.2022;19:30:00;6969
09.01.2022;19:45:00;6732
09.01.2022;20:00:00;6628
09.01.2022;20:15:00;6445
09.01.2022;20:30:00;6258
09.01.2022;20:45:00;6041
09.01.2022;21:00:00;5892
09.01.2022;21:15:00;5723
09.01.2022;21:30:00;5606
09.01.2022;21:45:00;5511
09.01.2022;22:00:00;5364
09.01.2022;22:15:00;5191
09.01.2022;22:30:00;5035
09.01.2022;22:45:00;4813
09.01.2022;23:00:00;4696
09.01.2022;23:15:00;4427
09.01.2022;23:30:00;4424
09.01.2022;23:45:00;4245
10.01.2022;00:00:00;4136
10.01.2022;00:15:00;3988
10.01.2022;00:30:00;3897
10.01.2022;00:45:00;3935
10.01.2022;01:00:00;3938
10.01.2022;01:15:00;3854
10.01.2022;01:30:00;3922
10.01.2022;01:45:00;3920
10.01.2022;02:00:00;3934
10.01.2022;02:15:00;3907
10.01.2022;02:30:00;3863
10.01.2022;02:45:00;3818
10.01.2022;03:00:00;3909
10.01.2022;03:15:00;3916
10.01.2022;03:30:00;3889
10.01.2022;03:45:00;3833
10.01.2022;04:00:00;3879
10.01.2022;04:15:00;4083
10.01.2022;04:30:00;3998
10.01.2022;04:45:00;4169
10.01.2022;05:00:00;4210
10.01.2022;05:15:00;4346
10.01.2022;05:30:00;4486
10.01.2022;05:45:00;4699
10.01.2022;06:00:00;5042
10.01.2022;06:15:00;5303
10.01.2022;06:30:00;5573
10.01.2022;06:45:00;5789
10.01.2022;07:00:00;5949
10.01.2022;07:15:00;6306
10.01.2022;07:30:00;6332
10.01.2022;07:45:00;6615
10.01.2022;08:00:00;6849
10.01.2022;08:15:00;6872
10.01.2022;08:30:00;6871
10.01.2022;08:45:00;6959
10.01.2022;09:00:00;6998
10.01.2022;09:15:00;7021
10.01.2022;09:30:00;6833
10.01.2022;09:45:00;6919
10.01.2022;10:00:00;6909
10.01.2022;10:15:00;6842
10.01.2022;10:30:00;7001
10.01.2022;10:45:00;6898
10.01.2022;11:00:00;6861
10.01.2022;11:15:00;7042
10.01.2022;11:30:00;7189
10.01.2022;11:45:00;7229
10.01.2022;12:00:00;7330
10.01.2022;12:15:00;7483
10.01.2022;12:30:00;7357
10.01.2022;12:45:00;7206
10.01.2022;13:00:00;7066
10.01.2022;13:15:00;7124
10.01.2022;13:30:00;7098
10.01.2022;13:45:00;7111
10.01.2022;14:00:00;6973
10.01.2022;14:15:00;6959